{"data":{"norad_id":64281,"epoch":"2026-09-20T22:56:19.709088Z","epoch_age_seconds":98196,"freshness":"FRESH","line1":"1 64281U 25120AB  26263.95578367  .00011379  00000+0  34743-3 0  9994","line2":"2 64281  53.1592 287.4771 0001384  31.9234 328.1853 15.34397975 73791","mean_motion":15.34397975,"eccentricity":0.0001384,"inclination_deg":53.1592,"raan_deg":287.4771,"arg_perigee_deg":31.9234,"mean_anomaly_deg":328.1853,"bstar":0.00034743,"rev_number":7379,"period_min":93.847881935585,"perigee_km":461.76248581824,"apogee_km":463.65603206271,"semimajor_km":6840.8462589405,"source":"CELESTRAK","updated_at":"2026-09-21T09:00:35.286980Z"}}